Simon Gorski V75 tips och andra gratis travtips

Här hittar du V75 tips och andra gratis travtips för kommande lopp med kusken Simon Gorski. Samt statistik och resultat för senaste loppen som Simon Gorski har tävlat i.

Aktuella/kommande tävlingsdagar

Datum Datum/bana/lopp Häst Distans/spår Rank
Simon Gorski har inga kommande starter..

Tidigare tävlingsdagar

Datum Datum/bana/lopp Häst Distans/spår Rank Plac. Tid Odds
2017-11-13 2017-11-13 Färjestad-10 Pellegrino Dulc Pellegrino Dulc   [v 6] 1640/9 D 0 18.5 628
2017-09-16 2017-09-16 Mantorp-1 Eponine Thenardier Eponine Thenardier   [s 6] 2140/1 D 7 16.5 59
2017-08-31 2017-08-31 Örebro-2 Mystic W.F. Mystic W.F.   [s 4] 2160/12 C 0 23.8 1175
2017-08-14 2017-08-14 Mantorp-3 Mystic W.F. Mystic W.F.   [s 4] 2140/9 D 0 20.1 678
2017-07-24 2017-07-24 Rättvik-1 Mystic W.F. Mystic W.F.   [s 4] 2160/11 C 0 24.5g 678
2017-07-20 2017-07-20 Örebro-2 Virginia Bell Virginia Bell   [s 8] 2100/2 C 0 17.6 222
2017-06-16 2017-06-16 Årjäng-7 Mystic W.F. Mystic W.F.   [s 4] 2140/9 D 6 20.8 999
2017-06-10 2017-06-10 Visby-1 Mystic W.F. Mystic W.F.   [s 4] 2120/6 D 0 21.7 546
2017-06-06 2017-06-06 Lindesberg-8 Outlaw Pete Outlaw Pete   [v 5] 1640/4 D 3 14.6 67
2017-05-30 2017-05-30 Romme-1 Mystic W.F. Mystic W.F.   [s 4] 2140/7 D 0 27.5g 277
2017-05-01 2017-05-01 Färjestad-2 Windstone Race Windstone Race   [v 7] 2140/4 B 8 16.6 131
2017-04-09 2017-04-09 Romme-8 Agaton Knox Agaton Knox   [v 8] 2140/3 B 0 17.3g 122
2017-03-28 2017-03-28 Eskilstuna-8 Windstone Race Windstone Race   [v 7] 2140/12 B 3 17.5 295
2018-12-03 2018-12-03 Eskilstuna-7 Gripen S.S. Gripen S.S.   [v 6] 2140/5 D 0 27.4g 355
2018-09-29 2018-09-29 Rättvik-2 Gripen S.S. Gripen S.S.   [v 6] 2140/11 C 0 20.8 406
2018-09-11 2018-09-11 Eskilstuna-3 Malte All Over Malte All Over   [v 7] 2140/8 B 0
2018-09-11 2018-09-11 Eskilstuna-11 Windstone Race Windstone Race   [v 8] 2140/6 D 0
2018-09-06 2018-09-06 Örebro-10 Gripen S.S. Gripen S.S.   [v 6] 2100/15 C 0
2018-08-03 2018-08-03 Örebro-8 Sachmet Carjan Sachmet Carjan   [s 7] 2100/6 B 6 16.4 251
2018-07-08 2018-07-08 Lindesberg-8 Sweet Näs Sweet Näs   [s 5] 2140/9 D 0 g 191
2018-06-10 2018-06-10 Eskilstuna-6 Windstone Race Windstone Race   [v 8] 2140/1 D 0 18.6 308
2018-05-06 2018-05-06 Årjäng-1 Agaton Knox Agaton Knox   [v 9] 1640/8 D 0 17.8g 265
2018-04-29 2018-04-29 Lindesberg-10 Pellegrino Dulc Pellegrino Dulc   [v 7] 1640/5 D 0 19.6g 300
2018-02-27 2018-02-27 Eskilstuna-9 Agaton Knox Agaton Knox   [v 9] 2140/4 C 0 20.8 401
2019-12-06 2019-12-06 Romme-9 Gripen S.S. Gripen S.S.   [v 7] 2140/5 D 6 18.6 411
2019-11-26 2019-11-26 Romme-2 Gripen S.S. Gripen S.S.   [v 7] 2140/6 C 6 19.0 324
2019-10-21 2019-10-21 Färjestad-1 Let's Dance Rick Let's Dance Rick   [s 4] 2140/8 C str
2019-10-21 2019-10-21 Färjestad-2 Gripen S.S. Gripen S.S.   [v 7] 2140/4 C 0 18.4 523
2019-10-21 2019-10-21 Färjestad-7 Malte All Over Malte All Over   [v 8] 2140/7 D 8 16.7 396
2019-10-10 2019-10-10 Örebro-7 Malte All Over Malte All Over   [v 8] 2100/11 C str
2019-10-10 2019-10-10 Örebro-8 Gripen S.S. Gripen S.S.   [v 7] 2100/8 B 4 19.6 608
2019-09-30 2019-09-30 Eskilstuna-11 Gripen S.S. Gripen S.S.   [v 7] 2140/1 D 0 21.3g 790
2019-09-23 2019-09-23 Örebro-9 Let's Dance Rick Let's Dance Rick   [s 4] 2140/1 D 6 18.3 517
2019-09-10 2019-09-10 Eskilstuna-6 Malte All Over Malte All Over   [v 8] 2140/5 C 8 16.0 221
2019-08-31 2019-08-31 Rättvik-3 Gripen S.S. Gripen S.S.   [v 7] 2140/1 D str
2019-06-18 2019-06-18 Eskilstuna-4 Livi Limit Livi Limit   [s 6] 2140/10 D 0 17.1 567
2019-05-19 2019-05-19 Lindesberg-5 Kensington Glide Kensington Glide   [v 9] 2140/9 D 8 19.3 236
2019-04-07 2019-04-07 Årjäng-7 Malte All Over Malte All Over   [v 8] 1640/3 B 0 19.9g 179
2019-03-18 2019-03-18 Färjestad-1 Jadde Dulc Jadde Dulc   [v 3] 2140/4 D 7 19.6 510
2019-02-17 2019-02-17 Eskilstuna-2 Jadde Dulc Jadde Dulc   [v 3] 2140/3 D 5 22.4 714
2019-02-07 2019-02-07 Örebro-1 Jadde Dulc Jadde Dulc   [v 3] 2140/1 C 5 24.6 514
2020-12-29 2020-12-29 Eskilstuna-5 Gripen S.S. Gripen S.S.   [v 8] 2140/11 D 0 21.0 743
2020-12-18 2020-12-18 Solvalla-8 Thirsty For More Thirsty For More   [v 5] 2660/8 C 0 18.9 581
2020-12-13 2020-12-13 Eskilstuna-12 Gripen S.S. Gripen S.S.   [v 8] 2140/9 D 8 17.7 477
2020-11-10 2020-11-10 Axevalla-8 Gripen S.S. Gripen S.S.   [v 8] 1640/10 D 6 15.1 209
2020-10-16 2020-10-16 Romme-10 Gripen S.S. Gripen S.S.   [v 8] 2140/9 D 4 16.7 154
2020-10-04 2020-10-04 Solvalla-5 Gripen S.S. Gripen S.S.   [v 8] 2140/4 D 5 17.3 378
2020-09-29 2020-09-29 Eskilstuna-5 Mimmi Marje Mimmi Marje   [s 9] 2140/12 D 0 16.2 270
2020-09-29 2020-09-29 Eskilstuna-10 Skall Ha Skall Ha   [v 8] 2140/3 C 3 14.6 48
2020-09-24 2020-09-24 Örebro-12 Gripen S.S. Gripen S.S.   [v 8] 2100/12 D 8 17.8 265
2020-08-29 2020-08-29 Eskilstuna-10 Gripen S.S. Gripen S.S.   [v 8] 2140/12 D 8 17.6 445
2020-08-27 2020-08-27 Örebro-2 Skinny Dipping Skinny Dipping   [s 6] 2100/4 C 6 15.4 491
2020-08-20 2020-08-20 Örebro-4 Starlight M.L. Starlight M.L.   [v 6] 2100/8 B 0 17.7g 573
2020-08-16 2020-08-16 Lindesberg-9 Gripen S.S. Gripen S.S.   [v 8] 2140/11 D 0 17.2g 641
2020-07-24 2020-07-24 Romme-10 Skinny Dipping Skinny Dipping   [s 6] 2640/8 D 0 17.1 904
2020-07-14 2020-07-14 Lindesberg-7 Skinny Dipping Skinny Dipping   [s 6] 2140/4 D 0 16.1 399
2020-07-10 2020-07-10 Årjäng-8 Gripen S.S. Gripen S.S.   [v 8] 2140/1 C 7 17.3 314
2020-05-12 2020-05-12 Eskilstuna-4 Starlight M.L. Starlight M.L.   [v 6] 2160/11 C 0 17.8 498
2020-05-12 2020-05-12 Eskilstuna-8 Let's Dance Rick Let's Dance Rick   [s 5] 1640/8 D 0 16.5 874
2020-05-09 2020-05-09 Lindesberg-2 Malte All Over Malte All Over   [v 9] 2180/13 B 0 17.0 155
2020-05-09 2020-05-09 Lindesberg-6 Gripen S.S. Gripen S.S.   [v 8] 1640/11 D 0 15.5 780
2020-05-04 2020-05-04 Färjestad-10 Skinny Dipping Skinny Dipping   [s 6] 2140/4 C 0 17.2g 122
2020-03-24 2020-03-24 Eskilstuna-4 Gripen S.S. Gripen S.S.   [v 8] 2140/7 D 8 18.1 214
2020-02-17 2020-02-17 Eskilstuna-10 Gripen S.S. Gripen S.S.   [v 8] 2140/11 D 0 19.9 627
2020-02-08 2020-02-08 Romme-7 Gripen S.S. Gripen S.S.   [v 8] 2140/10 D 4 20.2 554
2021-09-16 2021-09-16 Örebro-10 Diego Simoni Diego Simoni   [v 6] 2100/8 B 5 16.8 101
2021-08-23 2021-08-23 Romme-1 L'amour Printemps L'amour Printemps   [s 4] 1640/11 B 0 15.2 171
2021-08-16 2021-08-16 Färjestad-3 Nyby Black Money Nyby Black Money   [v 9] 2140/7 C str
2021-08-14 2021-08-14 Örebro-6 High on Life High on Life   [v 6] 2100/5 D 6 16.8 486
2021-08-05 2021-08-05 Lindesberg-1 Skinny Dipping Skinny Dipping   [s 7] 2640/12 D 5 16.6 753
2021-08-05 2021-08-05 Lindesberg-2 Halle Westwood Halle Westwood   [s 4] 1640/5 D 0 20.7g 47
2021-07-30 2021-07-30 Romme-8 Campagne de Press Campagne de Press   [v 4] 1640/3 D 5 14.0 193
2021-07-27 2021-07-27 Lindesberg-9 L'amour Printemps L'amour Printemps   [s 4] 2140/11 B 0 24.0g 25
2021-07-19 2021-07-19 Åmål-7 Halle Westwood Halle Westwood   [s 4] 1680/3 B 1 15.2 43
2021-07-18 2021-07-18 Lindesberg-2 Malte All Over Malte All Over   [v 10] 2140/4 C 0 16.2 341
2021-07-06 2021-07-06 Eskilstuna-11 Gripen S.S. Gripen S.S.   [v 9] 2140/12 D 8 17.7 646
2021-06-28 2021-06-28 Mantorp-5 Gripen S.S. Gripen S.S.   [v 9] 1640/9 D 7 15.7 917
2021-06-17 2021-06-17 Örebro-3 Malte All Over Malte All Over   [v 10] 2680/6 C 6 16.8 463
2021-05-19 2021-05-19 Solvalla-5 Skall Ha Skall Ha   [v 9] 2140/11 D str
2021-05-09 2021-05-09 Solvalla-2 Skall Ha Skall Ha   [v 9] 1640/4 D 1 14.8 27
2021-04-06 2021-04-06 Axevalla-3 Diego Simoni Diego Simoni   [v 6] 2640/6 C 7 17.9 209
2021-02-19 2021-02-19 Romme-6 Diego Simoni Diego Simoni   [v 6] 2140/2 D 0 17.2 95
2021-02-13 2021-02-13 Romme-2 Skall Ha Skall Ha   [v 9] 2140/4 C 5 17.5g 45
2021-02-07 2021-02-07 Romme-5 Mimmi Marje Mimmi Marje   [s 10] 2140/6 D 4 16.1 888
2021-02-01 2021-02-01 Färjestad-5 Diego Simoni Diego Simoni   [v 6] 1640/5 C 3 15.7 135
2021-01-29 2021-01-29 Romme-4 Gripen S.S. Gripen S.S.   [v 9] 2640/6 D 0 24.4 1422
2021-01-16 2021-01-16 Gävle-11 Gripen S.S. Gripen S.S.   [v 9] 2140/4 C 5 17.4 241



ATG (Aktiebolaget Trav och Galopp) är inte innehavare till Gratistravtips.se, utan förser oss enbart med data om aktuella startlistor, hästar, tränare och kuskar.
Denna information tillhandahålls enligt samarbetsavtal med ATG. Samtliga rättigheter tillhör ATG. Inga bilder, texter eller sammanställd information, eller utdrag därav, får användas för kommersiellt bruk eller i övrigt i strid mot reglerna i lag (1960:729) om upphovsrätt till litterära och konstnärliga verk.
Gratistravtips.se har ett aktivt samarbetsavtal med Svenska Spel Sport & Casino AB samt AB Svenska Spel och marknadsför deras produkter.
Spel för dig som fyllt 18 år
Spelproblem? Ring Stödlinjen på 020-81 91 00 eller besök Stödlinjens hemsida: www.stodlinjen.se. Du kan även testa dina spelvanor på: Spelalagom.se